Location: M.A.R.S.Observatory
(35.4031°N, 81.5481°W)
Time: 11:24:01
(UTC-05:00)

SL-8 R/B - Visible Passes

Search period start: 22 December 2014 00:00
Search period end: 01 January 2015 00:00
Orbit: 658 x 670 km, 48.4° (Epoch: 21 December)

Date Brightness Start Highest point End Pass type
(mag) Time Alt. Az. Time Alt. Az. Time Alt. Az.
22 Dec 5.9 04:37:02 21° ENE 04:37:02 21° ENE 04:39:07 10° E visible
22 Dec 3.7 06:15:04 24° WNW 06:17:57 77° SW 06:22:44 10° SE visible
23 Dec 4.5 05:07:31 48° ENE 05:07:31 48° ENE 05:11:37 10° ESE visible
23 Dec 4.8 06:45:33 12° WNW 06:49:20 29° SW 06:53:28 10° SSE visible
24 Dec 3.6 05:38:04 64° W 05:38:35 70° SW 05:43:21 10° SE visible
25 Dec 6.0 04:30:38 21° ESE 04:30:38 21° ESE 04:32:18 10° ESE visible
25 Dec 4.9 06:08:41 24° WSW 06:09:56 27° SW 06:13:56 10° S visible
26 Dec 5.1 05:01:18 32° SSE 05:01:18 32° SSE 05:03:57 10° SE visible
27 Dec 5.4 05:32:02 21° SSW 05:32:02 21° SSW 05:34:23 10° S visible
27 Dec 6.2 19:40:30 10° S 19:40:40 11° S 19:40:40 11° S visible
28 Dec 6.1 20:10:32 10° SSW 20:11:28 16° SSW 20:11:28 16° SSW visible
29 Dec 5.2 19:00:52 10° S 19:04:10 21° SE 19:04:10 21° SE visible
29 Dec 6.7 20:41:56 10° WSW 20:42:13 12° WSW 20:42:13 12° WSW visible
30 Dec 4.3 19:31:05 10° SW 19:34:52 48° S 19:34:52 48° S visible
31 Dec 5.1 18:21:16 10° S 18:25:04 24° SE 18:27:28 16° E visible
31 Dec 5.1 20:02:35 10° WSW 20:05:30 35° W 20:05:30 35° W visible
